Skip Page Navigation
NASA JPL Caltech
NASA Logo - Jet Propulsion Laboratory + View the NASA Portal
+ Center for Near-Earth Object Studies
JPL Home Earth Solar System Stars & Galaxies Technology
JPL Solar System Dynamics
BODIES ORBITS EPHEMERIDES TOOLS PHYSICAL DATA DISCOVERY FAQ SITE MAP
IMPORTANT: The SSD Announcement email list is now available. Major changes are coming in the near future, including possible hostname and/or URL changes. To be notified of such changes, subscribe to this email list.

Please visit this page for more details.


JPL Small-Body Database Browser
Search: [ help ]  
146795 (2001 YY36)
Classification: Main-belt Asteroid          SPK-ID: 2146795
Ephemeris | Orbit Diagram | Orbital Elements | Mission Design | Physical Parameters | Discovery Circumstances | Close-Approach Data ]

[ show orbit diagram ]
Orbital Elements at Epoch 2458600.5 (2019-Apr-27.0) TDB
Reference: JPL 12 (heliocentric ecliptic J2000)
 Element Value Uncertainty (1-sigma)   Units 
e .03369921450275327 7.7725e-08  
a 3.03482737861 3.1865e-08 au
q 2.932556079799393 2.3457e-07 au
i 9.917741739210875 5.4772e-06 deg
node 267.9494571186317 4.9168e-05 deg
peri 274.9984701100288 9.6181e-05 deg
M 2.789373061642995 8.0754e-05 deg
tp 2458585.537522216425
(2019-Apr-12.03752222)
0.00043322 TDB
period 1931.076225033207
5.29
3.0413e-05
8.327e-08
d
yr
n .1864245415759336 2.9361e-09 deg/d
Q 3.137098677420607 3.2938e-08 au
  Orbit Determination Parameters
   # obs. used (total)      352  
   data-arc span      9955 days (27.26 yr)  
   first obs. used      1992-01-28  
   last obs. used      2019-05-01  
   planetary ephem.      DE431  
   SB-pert. ephem.      SB431-N16  
   condition code      0  
   norm. resid. RMS      .54818  
   source      ORB  
   producer      Otto Matic  
   solution date      2019-Jul-13 10:44:11  

Additional Information
 Earth MOID = 1.95417 au 
 Jupiter MOID = 1.95438 au 
 T_jup = 3.218 
[ show covariance matrix ]

Ephemeris | Orbit Diagram | Orbital Elements | Mission Design | Physical Parameters | Discovery Circumstances | Close-Approach Data ]

Physical Parameter Table
Parameter Symbol Value Units Sigma Reference Notes
absolute magnitude H 15.0   n/a MPO251283  

146795 (2001 YY36)          Discovered 2001-Dec-18 by LINEAR at Socorro
Reference: 20070106/Numbers.arcLast Updated: 2007-01-09

[ show close-approach data ]
Alternate Designations
 2001 YY36 = 2000 SU51 
Ephemeris | Orbit Diagram | Orbital Elements | Mission Design | Physical Parameters | Discovery Circumstances | Close-Approach Data ]
ABOUT SSD CREDITS/AWARDS PRIVACY/COPYRIGHT GLOSSARY LINKS
FirstGov 2019-Dec-10 22:33 UT
(server date/time)  
NASA Home Page
Site Manager:   Ryan S. Park
Webmaster  Alan B. Chamberlin